Weather History for Paducah, KY

Change the Weather History Date:

Thursday, February 21, 2013

  Actual Average Record
Temperature  
Mean Temperature 31 °F 41 °F  
Max Temperature 37 °F 51 °F 71 °F (1983)
Min Temperature 25 °F 31 °F 1 °F (1963)
Degree Days  
Heating Degree Days 34 24  
Month to date heating degree days 556 563  
Since 1 July heating degree days 2929 3136  
Cooling Degree Days 0 0  
Month to date cooling degree days 0 0  
Year to date cooling degree days 0 0  
Moisture  
Dew Point 27 °F    
Average Humidity 73    
Maximum Humidity 92    
Minimum Humidity 54    
Precipitation  
Precipitation 1.13 in 0.14 in 2.07 in (1974)
Month to date precipitation 3.04 2.94  
Year to date precipitation 11.09 6.62  
Snow  
Snow 0.00 in 0.10 in 0.20 in (2008)
Month to date snowfall T 2.6  
Since 1 July snowfall 6.1 7.9  
Snow Depth 0.00 in    
Sea Level Pressure  
Sea Level Pressure 29.98 in    
Wind  
Wind Speed 11 mph (East)    
Max Wind Speed 26 mph    
Max Gust Speed 38 mph    
Visibility 5 miles    
Events Rain , Thunderstorm    
T = Trace of Precipitation, MM = Missing Value Source: NWS Daily Summary

Daily Weather History Graph

Daily Weather History Graph

Search for Another Location

Airport:

Trip Planner

Search our weather history database for the weather conditions in past years. The results will help you decide how hot, cold, wet, or windy it might be!

Date:

Astronomy

Feb. 21, 2013 Rise Set
Actual Time 6:36 AM CST 5:41 PM CST
Civil Twilight 6:09 AM CST 6:07 PM CST
Nautical Twilight 5:39 AM CST 6:38 PM CST
Astronomical Twilight 5:09 AM CST 7:08 PM CST
Moon 1:59 PM CST (2/21) 3:36 AM CST (2/21)
Length of Visible Light 11h 58m
Length of Day
11h 05m
Waxing Gibbous, 84% of the Moon is Illuminated
Feb 21
Waxing Gibbous
Feb 25
Full
Mar 4
Last Quarter
Mar 11
New
Mar 19
First Quarter

Hourly Weather History & Observations

Time (CST) Temp. Windchill Dew Point Humidity Pressure Visibility Wind Dir Wind Speed Gust Speed Precip Events Conditions
12:53 AM 26.1 °F 19.4 °F 18.0 °F 71% 30.28 in 10.0 mi ENE 5.8 mph - N/A   Partly Cloudy
1:53 AM 26.1 °F 17.6 °F 17.1 °F 69% 30.28 in 10.0 mi ENE 8.1 mph - N/A   Clear
2:53 AM 26.1 °F 17.6 °F 17.1 °F 69% 30.28 in 10.0 mi ENE 8.1 mph - N/A   Clear
3:53 AM 26.1 °F 15.6 °F 17.1 °F 69% 30.26 in 10.0 mi ENE 11.5 mph - N/A   Scattered Clouds
4:53 AM 26.1 °F 17.6 °F 17.1 °F 69% 30.27 in 10.0 mi East 8.1 mph - N/A   Partly Cloudy
5:53 AM 26.1 °F 15.6 °F 17.1 °F 69% 30.22 in 10.0 mi ENE 11.5 mph - N/A   Mostly Cloudy
6:53 AM 26.1 °F 14.0 °F 17.1 °F 69% 30.20 in 10.0 mi East 15.0 mph - N/A   Clear
7:53 AM 28.0 °F 17.0 °F 17.1 °F 63% 30.21 in 10.0 mi East 13.8 mph 20.7 mph N/A   Clear
8:53 AM 30.0 °F 19.5 °F 18.0 °F 61% 30.19 in 10.0 mi East 13.8 mph - N/A   Overcast
9:53 AM 32.0 °F 21.6 °F 18.0 °F 56% 30.15 in 10.0 mi East 15.0 mph - N/A   Mostly Cloudy
10:53 AM 32.0 °F 23.0 °F 21.0 °F 64% 30.15 in 9.0 mi ENE 11.5 mph - 0.00 in Rain Light Rain
11:53 AM 33.1 °F 23.0 °F 21.0 °F 61% 30.06 in 10.0 mi East 15.0 mph 26.5 mph 0.01 in Rain Light Rain
12:53 PM 34.0 °F 24.6 °F 21.0 °F 59% 29.97 in 10.0 mi East 13.8 mph - 0.00 in   Overcast
1:51 PM 33.8 °F 29.6 °F 26.6 °F 75% 30.01 in 5.0 mi Variable 4.6 mph - 0.06 in Rain Light Freezing Rain
1:53 PM 33.1 °F 30.0 °F 26.1 °F 75% 30.02 in 5.0 mi SE 3.5 mph - 0.06 in Rain Light Freezing Rain
2:18 PM 33.8 °F 29.6 °F 28.4 °F 81% 30.04 in 2.5 mi North 4.6 mph - 0.08 in Rain Light Freezing Rain
2:32 PM 32.0 °F 24.2 °F 28.4 °F 87% 30.02 in 3.0 mi NNE 9.2 mph - 0.13 in Rain Light Freezing Rain
2:53 PM 32.0 °F 22.5 °F 28.9 °F 88% 30.02 in 3.0 mi NE 12.7 mph - 0.19 in Rain Light Freezing Rain
3:07 PM 32.0 °F 21.2 °F 28.4 °F 87% 29.99 in 4.0 mi NE 16.1 mph - 0.03 in Rain Light Freezing Rain
3:24 PM 32.0 °F 21.2 °F 28.4 °F 87% 29.99 in 3.0 mi NE 16.1 mph - 0.06 in Rain Light Freezing Rain
3:41 PM 32.0 °F 21.2 °F 28.4 °F 87% 29.97 in 2.5 mi NE 16.1 mph - 0.15 in Rain Light Freezing Rain
3:53 PM 32.0 °F 21.6 °F 28.9 °F 88% 29.98 in 2.5 mi ENE 15.0 mph 24.2 mph 0.22 in Rain Light Freezing Rain
4:40 PM 32.0 °F 19.5 °F 28.4 °F 87% 29.88 in 3.0 mi East 21.9 mph 27.6 mph 0.20 in Rain Light Freezing Rain
4:49 PM 32.0 °F 19.8 °F 28.4 °F 87% 29.89 in 2.5 mi East 20.7 mph 29.9 mph 0.23 in Rain Light Freezing Rain
4:50 PM 32.0 °F 19.8 °F 28.9 °F 88% 29.89 in 2.5 mi East 20.7 mph 29.9 mph 0.23 in Rain Light Freezing Rain
4:55 PM 32.0 °F 19.5 °F 28.4 °F 87% 29.86 in 3.0 mi East 21.9 mph 29.9 mph 0.00 in   Overcast
5:14 PM 32.0 °F 19.2 °F 28.4 °F 87% 29.86 in 2.5 mi East 23.0 mph 38.0 mph 0.05 in Rain Light Freezing Rain
5:25 PM 32.0 °F 23.0 °F 30.2 °F 93% 29.89 in 4.0 mi ENE 11.5 mph 29.9 mph 0.07 in Rain Light Freezing Rain
5:51 PM 33.8 °F 24.3 °F 30.2 °F 87% 29.89 in 3.0 mi East 13.8 mph - 0.09 in Rain Light Freezing Rain
5:53 PM 33.1 °F 22.2 °F 30.0 °F 89% 29.90 in 2.5 mi ESE 17.3 mph - 0.10 in Rain Light Freezing Rain
6:04 PM 33.8 °F 22.8 °F 30.2 °F 87% 29.90 in 2.5 mi ESE 18.4 mph 24.2 mph 0.04 in Rain Light Freezing Rain
6:11 PM 33.8 °F 23.9 °F 30.2 °F 87% 29.90 in 2.5 mi East 15.0 mph 23.0 mph 0.07 in Rain Light Freezing Rain
6:17 PM 33.8 °F 25.8 °F 30.2 °F 87% 29.90 in 3.0 mi East 10.4 mph 19.6 mph 0.09 in Rain Light Freezing Rain
6:19 PM 33.8 °F 27.0 °F 30.2 °F 87% 29.91 in 4.0 mi East 8.1 mph 19.6 mph 0.09 in Rain Light Freezing Rain
6:27 PM 33.8 °F 24.8 °F 30.2 °F 87% 29.89 in 5.0 mi East 12.7 mph 18.4 mph 0.10 in Rain Light Freezing Rain
6:43 PM 33.8 °F 25.3 °F 30.2 °F 87% 29.90 in 5.0 mi East 11.5 mph - 0.10 in Rain , Thunderstorm Thunderstorms and Rain
6:53 PM 33.1 °F 23.0 °F 30.9 °F 92% 29.90 in 5.0 mi East 15.0 mph 19.6 mph 0.11 in Rain , Thunderstorm Light Thunderstorms and Rain
7:34 PM 33.8 °F 23.9 °F 30.2 °F 87% 29.87 in 4.0 mi East 15.0 mph - 0.01 in   Overcast
7:46 PM 33.8 °F 25.3 °F 30.2 °F 87% 29.88 in 3.0 mi East 11.5 mph 20.7 mph 0.01 in Rain , Thunderstorm Light Thunderstorms and Rain
7:53 PM 33.1 °F 25.5 °F 30.9 °F 92% 29.93 in 2.5 mi NNW 9.2 mph 18.4 mph 0.10 in Rain , Thunderstorm Thunderstorms and Rain
8:02 PM 33.8 °F 25.8 °F 30.2 °F 87% 29.88 in 4.0 mi East 10.4 mph - 0.00 in Rain , Thunderstorm Light Thunderstorms and Rain
8:21 PM 33.8 °F 27.0 °F 30.2 °F 87% 29.88 in 5.0 mi East 8.1 mph - 0.01 in Rain Light Rain
8:35 PM 33.8 °F 25.8 °F 32.0 °F 93% 29.89 in 2.5 mi East 10.4 mph - 0.07 in Rain Rain
8:44 PM 33.8 °F 25.8 °F 32.0 °F 93% 29.88 in 4.0 mi ESE 10.4 mph - 0.07 in Rain Light Rain
8:53 PM 33.1 °F 24.9 °F 32.0 °F 96% 29.88 in 3.0 mi ESE 10.4 mph - 0.09 in Rain Rain
9:04 PM 33.8 °F 25.8 °F 32.0 °F 93% 29.86 in 4.0 mi East 10.4 mph - 0.02 in Rain Light Rain
9:35 PM 33.8 °F 24.8 °F 32.0 °F 93% 29.83 in 5.0 mi ESE 12.7 mph - 0.02 in   Overcast
9:53 PM 34.0 °F 26.6 °F 33.1 °F 96% 29.84 in 4.0 mi East 9.2 mph - 0.02 in   Overcast
10:02 PM 33.8 °F 25.3 °F 33.8 °F 100% 29.84 in 5.0 mi ESE 11.5 mph - N/A   Overcast
10:53 PM 35.1 °F 29.3 °F 34.0 °F 96% 29.84 in 5.0 mi SE 6.9 mph - N/A   Overcast
11:12 PM 35.6 °F 31.7 °F 33.8 °F 93% 29.83 in 5.0 mi SSE 4.6 mph - N/A   Overcast
11:53 PM 35.6 °F 32.8 °F 35.6 °F 100% 29.82 in 5.0 mi SE 3.5 mph - N/A   Overcast